| time (UTC) | temp C | wind direction | speed KPH | gust KPH | rain 1hr cm | rain 24hr cm | rain mn cm | humidity % | barometer mb |
| 20260906095554 | 22 | 220 | 0.0 | 1.6 | 0.00 | 0.10 | 0.00 | 91 | 1012.6 |
| 20260906095058 | 22 | 230 | 1.6 | 4.8 | 0.00 | 0.10 | 0.00 | 92 | 1012.6 |
| 20260906094055 | 22 | 231 | 0.0 | 3.2 | 0.00 | 0.10 | 0.00 | 93 | 1012.2 |
| 20260906093555 | 22 | 217 | 0.0 | 1.6 | 0.00 | 0.10 | 0.00 | 93 | 1012.0 |
| 20260906093054 | 22 | 216 | 0.0 | 1.6 | 0.00 | 0.10 | 0.00 | 92 | 1011.9 |
| 20260906091554 | 22 | 217 | 0.0 | 1.6 | 0.00 | 0.10 | 0.00 | 90 | 1012.1 |
| 20260906091055 | 23 | 0 | 0.0 | 0.0 | 0.00 | 0.10 | 0.00 | 89 | 1012.5 |
| 20260906090555 | 23 | 0 | 0.0 | 0.0 | 0.00 | 0.10 | 0.00 | 86 | 1012.5 |
| 20260906085054 | 23 | 155 | 0.0 | 1.6 | 0.00 | 0.10 | 0.00 | 87 | 1012.7 |
| 20260906082054 | 23 | 41 | 1.6 | 8.0 | 0.00 | 0.10 | 0.00 | 88 | 1012.8 |
| 20260906073054 | 23 | 0 | 0.0 | 0.0 | 0.00 | 0.10 | 0.00 | 93 | 1011.9 |
| 20260906072554 | 23 | 203 | 0.0 | 1.6 | 0.00 | 0.10 | 0.00 | 94 | 1012.1 |
| 20260906071054 | 23 | 242 | 0.0 | 3.2 | 0.00 | 0.10 | 0.00 | 96 | 1012.4 |
| 20260906070055 | 23 | 0 | 0.0 | 0.0 | 0.00 | 0.10 | 0.00 | 96 | 1012.3 |
| 20260906064554 | 23 | 177 | 0.0 | 1.6 | 0.00 | 0.10 | 0.00 | 96 | 1012.4 |
| 20260906062555 | 23 | 0 | 0.0 | 0.0 | 0.00 | 0.10 | 0.00 | 96 | 1012.6 |
| 20260906061554 | 23 | 178 | 0.0 | 1.6 | 0.00 | 0.10 | 0.00 | 96 | 1012.5 |
| 20260906060554 | 22 | 172 | 0.0 | 1.6 | 0.00 | 0.10 | 0.00 | 96 | 1012.3 |
| 20260906060054 | 22 | 0 | 0.0 | 0.0 | 0.00 | 0.10 | 0.00 | 96 | 1012.4 |
| 20260906055054 | 22 | 0 | 0.0 | 0.0 | 0.00 | 0.10 | 0.00 | 96 | 1012.4 |
| 20260906054054 | 22 | 124 | 0.0 | 1.6 | 0.00 | 0.10 | 0.00 | 95 | 1012.5 |
| 20260906053554 | 22 | 124 | 0.0 | 1.6 | 0.00 | 0.10 | 0.00 | 95 | 1012.5 |
| 20260906053055 | 22 | 0 | 0.0 | 0.0 | 0.00 | 0.10 | 0.00 | 95 | 1012.6 |
| 20260906052555 | 22 | 0 | 0.0 | 0.0 | 0.00 | 0.10 | 0.00 | 95 | 1012.6 |
| 20260906052054 | 23 | 0 | 0.0 | 0.0 | 0.00 | 0.10 | 0.00 | 95 | 1012.5 |
| 20260906050053 | 23 | 0 | 0.0 | 0.0 | 0.00 | 0.10 | 0.10 | 94 | 1012.7 |
| 20260906045054 | 23 | 124 | 0.0 | 1.6 | 0.00 | 0.10 | 0.10 | 94 | 1012.5 |
| 20260906044053 | 23 | 124 | 0.0 | 1.6 | 0.00 | 0.10 | 0.10 | 94 | 1012.8 |
| 20260906042554 | 23 | 124 | 0.0 | 1.6 | 0.00 | 0.10 | 0.10 | 94 | 1012.6 |
| 20260906042053 | 23 | 124 | 0.0 | 1.6 | 0.00 | 0.10 | 0.10 | 94 | 1012.7 |
| 20260906041055 | 23 | 111 | 0.0 | 3.2 | 0.00 | 0.10 | 0.10 | 93 | 1012.7 |
| 20260906035054 | 23 | 210 | 0.0 | 1.6 | 0.00 | 0.10 | 0.10 | 94 | 1012.9 |
| 20260906034054 | 23 | 198 | 0.0 | 3.2 | 0.00 | 0.10 | 0.10 | 94 | 1012.7 |
| 20260906033555 | 23 | 185 | 1.6 | 3.2 | 0.05 | 0.10 | 0.10 | 94 | 1012.6 |
| 20260906033055 | 23 | 180 | 0.0 | 1.6 | 0.10 | 0.10 | 0.10 | 94 | 1012.5 |
| 20260906032555 | 23 | 0 | 0.0 | 0.0 | 0.10 | 0.10 | 0.10 | 94 | 1012.5 |
| 20260906032054 | 23 | 0 | 0.0 | 0.0 | 0.10 | 0.10 | 0.10 | 93 | 1012.4 |
| 20260906031555 | 23 | 0 | 0.0 | 0.0 | 0.10 | 0.10 | 0.10 | 93 | 1012.3 |
| 20260906031055 | 23 | 0 | 0.0 | 0.0 | 0.10 | 0.10 | 0.10 | 93 | 1012.3 |
| 20260906030055 | 23 | 0 | 0.0 | 0.0 | 0.10 | 0.10 | 0.10 | 91 | 1012.4 |
| 20260906025055 | 24 | 0 | 0.0 | 0.0 | 0.10 | 0.10 | 0.10 | 89 | 1012.3 |
| 20260906024556 | 24 | 0 | 0.0 | 0.0 | 0.10 | 0.10 | 0.10 | 87 | 1012.1 |
| 20260906023555 | 25 | 178 | 0.0 | 1.6 | 0.00 | 0.00 | 0.00 | 83 | 1012.0 |
| 20260906022554 | 25 | 165 | 0.0 | 3.2 | 0.00 | 0.00 | 0.00 | 81 | 1012.0 |
| 20260906022054 | 25 | 0 | 0.0 | 0.0 | 0.00 | 0.00 | 0.00 | 80 | 1012.0 |
| 20260906021055 | 26 | 119 | 0.0 | 1.6 | 0.00 | 0.00 | 0.00 | 80 | 1011.9 |
| 20260906020554 | 26 | 119 | 0.0 | 1.6 | 0.00 | 0.00 | 0.00 | 80 | 1011.7 |
| 20260906020055 | 26 | 120 | 0.0 | 1.6 | 0.00 | 0.00 | 0.00 | 78 | 1011.7 |
| 20260906015054 | 27 | 0 | 0.0 | 0.0 | 0.00 | 0.00 | 0.00 | 74 | 1011.6 |
| 20260906014555 | 27 | 119 | 0.0 | 1.6 | 0.00 | 0.00 | 0.00 | 75 | 1011.6 |
| 20260906014054 | 27 | 119 | 0.0 | 1.6 | 0.00 | 0.00 | 0.00 | 75 | 1011.4 |
| 20260906013054 | 27 | 119 | 0.0 | 1.6 | 0.00 | 0.00 | 0.00 | 74 | 1010.9 |
| 20260906012555 | 27 | 122 | 0.0 | 1.6 | 0.00 | 0.00 | 0.00 | 74 | 1010.8 |
| 20260906011555 | 27 | 73 | 0.0 | 3.2 | 0.00 | 0.00 | 0.00 | 76 | 1010.6 |
| 20260906011054 | 26 | 85 | 3.2 | 9.7 | 0.00 | 0.00 | 0.00 | 81 | 1010.4 |
| 20260906010555 | 26 | 88 | 1.6 | 4.8 | 0.00 | 0.00 | 0.00 | 84 | 1010.3 |
| 20260906010054 | 26 | 145 | 0.0 | 3.2 | 0.00 | 0.00 | 0.00 | 82 | 1010.1 |
| 20260906005056 | 27 | 0 | 0.0 | 0.0 | 0.00 | 0.00 | 0.00 | 79 | 1010.1 |
| 20260906004054 | 27 | 125 | 0.0 | 1.6 | 0.00 | 0.00 | 0.00 | 80 | 1010.3 |
| 20260906003054 | 27 | 125 | 0.0 | 1.6 | 0.00 | 0.00 | 0.00 | 78 | 1010.2 |
| 20260906002554 | 28 | 124 | 0.0 | 1.6 | 0.00 | 0.00 | 0.00 | 76 | 1010.4 |
| 20260906001054 | 29 | 126 | 0.0 | 1.6 | 0.00 | 0.00 | 0.00 | 74 | 1010.2 |
| 20260906000555 | 29 | 125 | 0.0 | 1.6 | 0.00 | 0.00 | 0.00 | 71 | 1010.3 |
| 20260906000054 | 30 | 125 | 0.0 | 1.6 | 0.00 | 0.00 | 0.00 | 71 | 1010.4 |
| 20260905235554 | 30 | 123 | 0.0 | 1.6 | 0.00 | 0.00 | 0.00 | 71 | 1010.4 |
| 20260905235055 | 30 | 105 | 1.6 | 3.2 | 0.00 | 0.00 | 0.00 | 72 | 1010.4 |
| 20260905233554 | 30 | 0 | 0.0 | 0.0 | 0.00 | 0.00 | 0.00 | 70 | 1010.2 |
| 20260905232554 | 31 | 0 | 0.0 | 0.0 | 0.00 | 0.00 | 0.00 | 70 | 1010.0 |
| 20260905232054 | 31 | 208 | 0.0 | 1.6 | 0.00 | 0.00 | 0.00 | 65 | 1009.8 |
| 20260905231554 | 32 | 0 | 0.0 | 0.0 | 0.00 | 0.00 | 0.00 | 63 | 1009.6 |
| 20260905231054 | 32 | 0 | 0.0 | 0.0 | 0.00 | 0.00 | 0.00 | 62 | 1009.5 |
| 20260905230554 | 32 | 204 | 0.0 | 3.2 | 0.00 | 0.00 | 0.00 | 60 | 1009.5 |
| 20260905230054 | 33 | 197 | 0.0 | 1.6 | 0.00 | 0.00 | 0.00 | 57 | 1009.5 |
| 20260905225557 | 34 | 180 | 0.0 | 1.6 | 0.00 | 0.00 | 0.00 | 52 | 1009.5 |
| 20260905225054 | 34 | 181 | 0.0 | 1.6 | 0.00 | 0.00 | 0.00 | 50 | 1009.4 |
| 20260905224554 | 34 | 224 | 0.0 | 1.6 | 0.00 | 0.00 | 0.00 | 53 | 1009.4 |
| 20260905223054 | 35 | 221 | 1.6 | 4.8 | 0.00 | 0.00 | 0.00 | 51 | 1009.4 |
| 20260905222055 | 35 | 205 | 0.0 | 3.2 | 0.00 | 0.00 | 0.00 | 49 | 1009.5 |
| 20260905215557 | 35 | 239 | 3.2 | 6.4 | 0.00 | 0.00 | 0.00 | 49 | 1009.6 |
| 20260905215054 | 35 | 227 | 1.6 | 6.4 | 0.00 | 0.00 | 0.00 | 50 | 1009.7 |
| 20260905214554 | 35 | 252 | 1.6 | 6.4 | 0.00 | 0.00 | 0.00 | 49 | 1009.7 |
| 20260905214054 | 35 | 225 | 1.6 | 8.0 | 0.00 | 0.00 | 0.00 | 48 | 1009.5 |
| 20260905213554 | 35 | 222 | 1.6 | 4.8 | 0.00 | 0.00 | 0.00 | 48 | 1009.6 |
| 20260905212555 | 35 | 240 | 3.2 | 4.8 | 0.00 | 0.00 | 0.00 | 49 | 1009.7 |
| 20260905212055 | 35 | 239 | 3.2 | 6.4 | 0.00 | 0.00 | 0.00 | 49 | 1009.7 |
| 20260905211054 | 36 | 218 | 0.0 | 3.2 | 0.00 | 0.00 | 0.00 | 48 | 1009.6 |
| 20260905210554 | 36 | 221 | 1.6 | 4.8 | 0.00 | 0.00 | 0.00 | 49 | 1009.5 |
| 20260905210054 | 35 | 215 | 0.0 | 3.2 | 0.00 | 0.00 | 0.00 | 48 | 1009.6 |
| 20260905205555 | 35 | 231 | 1.6 | 4.8 | 0.00 | 0.00 | 0.00 | 46 | 1009.7 |
| 20260905204055 | 35 | 298 | 1.6 | 6.4 | 0.00 | 0.00 | 0.00 | 47 | 1009.9 |
| 20260905203054 | 35 | 228 | 3.2 | 8.0 | 0.00 | 0.00 | 0.00 | 48 | 1010.1 |
| 20260905202555 | 35 | 244 | 1.6 | 9.7 | 0.00 | 0.00 | 0.00 | 48 | 1010.1 |
| 20260905202054 | 35 | 84 | 3.2 | 6.4 | 0.00 | 0.00 | 0.00 | 47 | 1010.3 |
| 20260905201554 | 35 | 80 | 1.6 | 8.0 | 0.00 | 0.00 | 0.00 | 47 | 1010.4 |
| 20260905201054 | 35 | 305 | 1.6 | 4.8 | 0.00 | 0.00 | 0.00 | 46 | 1010.4 |
| 20260905200555 | 35 | 276 | 3.2 | 8.0 | 0.00 | 0.00 | 0.00 | 45 | 1010.5 |
| 20260905200054 | 35 | 217 | 1.6 | 4.8 | 0.00 | 0.00 | 0.00 | 47 | 1010.6 |
| 20260905195554 | 36 | 62 | 1.6 | 4.8 | 0.00 | 0.00 | 0.00 | 47 | 1010.7 |
| 20260905194054 | 35 | 303 | 3.2 | 8.0 | 0.00 | 0.00 | 0.00 | 46 | 1010.7 |
| 20260905192554 | 35 | 80 | 3.2 | 9.7 | 0.00 | 0.00 | 0.00 | 47 | 1010.9 |
| 20260905192054 | 35 | 223 | 1.6 | 6.4 | 0.00 | 0.00 | 0.00 | 46 | 1011.0 |
| 20260905191554 | 34 | 35 | 1.6 | 4.8 | 0.00 | 0.00 | 0.00 | 48 | 1011.1 |
| 20260905190554 | 35 | 155 | 3.2 | 11.3 | 0.00 | 0.00 | 0.00 | 48 | 1011.3 |
| 20260905190054 | 35 | 219 | 1.6 | 4.8 | 0.00 | 0.00 | 0.00 | 46 | 1011.3 |
| 20260905185555 | 35 | 304 | 1.6 | 6.4 | 0.00 | 0.00 | 0.00 | 47 | 1011.4 |
| 20260905184553 | 34 | 96 | 1.6 | 6.4 | 0.00 | 0.00 | 0.00 | 48 | 1011.6 |
| 20260905184055 | 34 | 102 | 1.6 | 8.0 | 0.00 | 0.00 | 0.00 | 48 | 1011.7 |
| 20260905183554 | 34 | 106 | 1.6 | 3.2 | 0.00 | 0.00 | 0.00 | 50 | 1011.8 |
| 20260905183054 | 35 | 120 | 1.6 | 6.4 | 0.00 | 0.00 | 0.00 | 49 | 1011.8 |
| 20260905182554 | 35 | 115 | 1.6 | 6.4 | 0.00 | 0.00 | 0.00 | 49 | 1011.9 |
| 20260905182055 | 35 | 278 | 1.6 | 4.8 | 0.00 | 0.00 | 0.00 | 48 | 1011.9 |
| 20260905181555 | 33 | 197 | 1.6 | 3.2 | 0.00 | 0.00 | 0.00 | 50 | 1012.0 |
| 20260905180555 | 34 | 39 | 3.2 | 8.0 | 0.00 | 0.00 | 0.00 | 50 | 1012.1 |
| 20260905180054 | 34 | 2 | 1.6 | 4.8 | 0.00 | 0.00 | 0.00 | 48 | 1012.2 |
| 20260905172555 | 33 | 83 | 3.2 | 9.7 | 0.00 | 0.00 | 0.00 | 53 | 1012.5 |
| 20260905172054 | 33 | 48 | 1.6 | 6.4 | 0.00 | 0.00 | 0.00 | 53 | 1012.6 |
| 20260905171556 | 33 | 102 | 3.2 | 6.4 | 0.00 | 0.00 | 0.00 | 59 | 1012.6 |
| 20260905171055 | 33 | 82 | 3.2 | 6.4 | 0.00 | 0.00 | 0.00 | 58 | 1012.7 |
| 20260905170054 | 33 | 86 | 3.2 | 8.0 | 0.00 | 0.00 | 0.00 | 57 | 1012.8 |
| 20260905164554 | 33 | 21 | 3.2 | 9.7 | 0.00 | 0.00 | 0.00 | 58 | 1012.9 |
| 20260905164056 | 33 | 72 | 1.6 | 4.8 | 0.00 | 0.00 | 0.00 | 59 | 1012.9 |
| 20260905161055 | 32 | 104 | 1.6 | 6.4 | 0.00 | 0.00 | 0.00 | 59 | 1013.2 |
| 20260905160556 | 32 | 55 | 1.6 | 6.4 | 0.00 | 0.00 | 0.00 | 58 | 1013.4 |
| 20260905160055 | 32 | 11 | 3.2 | 8.0 | 0.00 | 0.00 | 0.00 | 59 | 1013.4 |
| 20260905155555 | 32 | 283 | 1.6 | 6.4 | 0.00 | 0.00 | 0.00 | 60 | 1013.4 |
| 20260905154555 | 32 | 339 | 3.2 | 8.0 | 0.00 | 0.00 | 0.00 | 60 | 1013.4 |
| 20260905154056 | 33 | 61 | 1.6 | 4.8 | 0.00 | 0.00 | 0.00 | 61 | 1013.5 |
| 20260905153555 | 33 | 3 | 1.6 | 4.8 | 0.00 | 0.00 | 0.00 | 61 | 1013.4 |
| 20260905153055 | 32 | 173 | 0.0 | 3.2 | 0.00 | 0.00 | 0.00 | 61 | 1013.4 |
| 20260905152555 | 32 | 216 | 1.6 | 6.4 | 0.00 | 0.00 | 0.00 | 64 | 1013.5 |
| 20260905152054 | 31 | 96 | 1.6 | 4.8 | 0.00 | 0.00 | 0.00 | 64 | 1013.5 |
| 20260905151054 | 31 | 222 | 0.0 | 4.8 | 0.00 | 0.00 | 0.00 | 64 | 1013.5 |
| 20260905150555 | 31 | 111 | 0.0 | 3.2 | 0.00 | 0.00 | 0.00 | 67 | 1013.4 |
| 20260905150055 | 31 | 77 | 0.0 | 6.4 | 0.00 | 0.00 | 0.00 | 68 | 1013.6 |
| 20260905142054 | 30 | 249 | 0.0 | 4.8 | 0.00 | 0.00 | 0.00 | 71 | 1013.9 |
| 20260905140554 | 29 | 205 | 0.0 | 3.2 | 0.00 | 0.00 | 0.00 | 76 | 1013.9 |
| 20260905135055 | 28 | 214 | 0.0 | 1.6 | 0.00 | 0.00 | 0.00 | 79 | 1014.3 |
| 20260905134555 | 28 | 265 | 1.6 | 3.2 | 0.00 | 0.00 | 0.00 | 77 | 1014.4 |
| 20260905134054 | 28 | 178 | 1.6 | 3.2 | 0.00 | 0.00 | 0.00 | 77 | 1014.4 |
| 20260905133056 | 27 | 170 | 0.0 | 1.6 | 0.00 | 0.00 | 0.00 | 80 | 1014.5 |
| 20260905132554 | 27 | 172 | 0.0 | 1.6 | 0.00 | 0.00 | 0.00 | 80 | 1014.5 |
| 20260905132055 | 27 | 171 | 0.0 | 1.6 | 0.00 | 0.00 | 0.00 | 82 | 1014.6 |
| 20260905124555 | 24 | 0 | 0.0 | 0.0 | 0.00 | 0.00 | 0.00 | 93 | 1014.9 |
| 20260905124055 | 24 | 0 | 0.0 | 0.0 | 0.00 | 0.00 | 0.00 | 96 | 1014.9 |
| 20260905122555 | 22 | 206 | 0.0 | 1.6 | 0.00 | 0.00 | 0.00 | 98 | 1015.0 |
| 20260905120054 | 21 | 0 | 0.0 | 0.0 | 0.00 | 0.00 | 0.00 | 98 | 1014.8 |
| 20260905115555 | 21 | 0 | 0.0 | 0.0 | 0.00 | 0.00 | 0.00 | 98 | 1014.7 |
| 20260905114055 | 21 | 0 | 0.0 | 0.0 | 0.00 | 0.00 | 0.00 | 97 | 1014.7 |
| 20260905112554 | 21 | 0 | 0.0 | 0.0 | 0.00 | 0.00 | 0.00 | 97 | 1014.4 |
| 20260905111554 | 21 | 0 | 0.0 | 0.0 | 0.00 | 0.00 | 0.00 | 97 | 1014.2 |
| 20260905105555 | 21 | 0 | 0.0 | 0.0 | 0.00 | 0.00 | 0.00 | 97 | 1014.1 |
| 20260905105058 | 21 | 0 | 0.0 | 0.0 | 0.00 | 0.00 | 0.00 | 97 | 1014.0 |
| 20260905104555 | 22 | 0 | 0.0 | 0.0 | 0.00 | 0.00 | 0.00 | 97 | 1014.1 |
| 20260905104054 | 22 | 0 | 0.0 | 0.0 | 0.00 | 0.00 | 0.00 | 97 | 1014.1 |
| 20260905101555 | 22 | 207 | 0.0 | 1.6 | 0.00 | 0.00 | 0.00 | 97 | 1014.0 |